Location: Oriwa
(40.7500°S, 175.3333°E)
Time: 12:05:43
(UTC+00:00)

IRS-1D - Pass Details

Date: 03 February 2023
Orbit: 738 x 816 km, 98.7° (Epoch: 31 March)

Event Time Altitude Azimuth Distance (km) Brightness Sun altitude
Exits shadow 15:12:54 32° 261° (W) 1,290 4.4 -21.7°
Drops below altitude 10° 15:16:45 10° 213° (SSW) 2,282 6.1 -21.3°
Sets 15:19:16 0° 203° (SSW) 3,211 7.0 -20.9°
